• In Deutschland
  • Länderverzeichnis
  • Für 7 Tage
  • Wassertemperatur
  • Satellitenkarten
  • Wetterkarte
  • Widgets
  • user-avatar
    Anmelden

    Stündliche Wetter Klagenfurt

    Heute, 23 Juni, Freitag

    Zeit Temperatur Niederschläge Wind Luftdruck Luftfeuchtigkeit
    00:00 +18°C° 0 mm 1 m/S 691 mmHg 88%
    01:00 +18°C° 0 mm 1 m/S 690 mmHg 90%
    02:00 +18°C° 0 mm 1 m/S 690 mmHg 90%
    03:00 +16°C° 0 mm 1 m/S 690 mmHg 90%
    04:00 +16°C° 0 mm 1 m/S 690 mmHg 90%
    05:00 +19°C° 0 mm 1 m/S 690 mmHg 84%
    06:00 +21°C° 0 mm 1 m/S 691 mmHg 79%
    07:00 +23°C° 0 mm 1 m/S 692 mmHg 73%
    08:00 +25°C° 0 mm 1 m/S 692 mmHg 65%
    09:00 +26°C° 0 mm 2 m/S 692 mmHg 57%
    10:00 +28°C° 0 mm 2 m/S 693 mmHg 48%
    11:00 +29°C° 0 mm 2 m/S 693 mmHg 46%
    12:00 +30°C° 0 mm 2 m/S 693 mmHg 43%
    13:00 +31°C° 0 mm 2 m/S 693 mmHg 41%
    14:00 +31°C° 0,1 mm 2 m/S 693 mmHg 43%
    15:00 +30°C° 0,1 mm 2 m/S 692 mmHg 46%
    16:00 +30°C° 0,1 mm 2 m/S 692 mmHg 48%
    17:00 +28°C° 0,1 mm 2 m/S 692 mmHg 57%
    18:00 +26°C° 0,1 mm 1 m/S 692 mmHg 67%
    19:00 +24°C° 0,1 mm 1 m/S 691 mmHg 76%
    20:00 +22°C° 0 mm 1 m/S 691 mmHg 81%
    21:00 +20°C° 0 mm 1 m/S 691 mmHg 85%
    22:00 +19°C° 0 mm 1 m/S 691 mmHg 90%
    23:00 +18°C° 0 mm 1 m/S 691 mmHg 90%

    Morgen, 24 Juni, Samstag

    Zeit Temperatur Niederschläge Wind Luftdruck Luftfeuchtigkeit
    00:00 +16°C° 0 mm 1 m/S 691 mmHg 91%
    01:00 +16°C° 0 mm 1 m/S 691 mmHg 91%
    02:00 +15°C° 0,1 mm 1 m/S 691 mmHg 92%
    03:00 +15°C° 0,1 mm 1 m/S 691 mmHg 92%
    04:00 +14°C° 0,1 mm 1 m/S 691 mmHg 93%
    05:00 +18°C° 0 mm 1 m/S 692 mmHg 87%
    06:00 +20°C° 0 mm 1 m/S 692 mmHg 81%
    07:00 +22°C° 0 mm 1 m/S 693 mmHg 75%
    08:00 +23°C° 0 mm 1 m/S 693 mmHg 70%
    09:00 +25°C° 0 mm 1 m/S 693 mmHg 65%
    10:00 +26°C° 0 mm 1 m/S 693 mmHg 61%
    11:00 +26°C° 0,4 mm 1 m/S 693 mmHg 61%
    12:00 +27°C° 0,4 mm 1 m/S 693 mmHg 61%
    13:00 +27°C° 0,4 mm 2 m/S 693 mmHg 61%
    14:00 +27°C° 0,5 mm 2 m/S 692 mmHg 61%
    15:00 +27°C° 0,5 mm 2 m/S 692 mmHg 62%
    16:00 +27°C° 0,5 mm 2 m/S 692 mmHg 62%
    17:00 +26°C° 0,7 mm 1 m/S 691 mmHg 70%
    18:00 +25°C° 0,7 mm 1 m/S 691 mmHg 78%
    19:00 +24°C° 0,7 mm 1 m/S 691 mmHg 86%
    20:00 +22°C° 1 mm 1 m/S 690 mmHg 89%
    21:00 +18°C° 1 mm 0 m/S 690 mmHg 91%
    22:00 +16°C° 1 mm 0 m/S 690 mmHg 94%
    23:00 +16°C° 0,8 mm 0 m/S 690 mmHg 94%

    übermorgen, 25 Juni, Sonntag

    Zeit Temperatur Niederschläge Wind Luftdruck Luftfeuchtigkeit
    00:00 +16°C° 0,8 mm 0 m/S 690 mmHg 94%
    01:00 +16°C° 0,8 mm 1 m/S 690 mmHg 94%
    02:00 +16°C° 0,9 mm 1 m/S 689 mmHg 94%
    03:00 +16°C° 0,9 mm 1 m/S 689 mmHg 94%
    04:00 +16°C° 0,9 mm 1 m/S 689 mmHg 94%
    05:00 +18°C° 2,1 mm 1 m/S 690 mmHg 93%
    06:00 +19°C° 2,1 mm 1 m/S 690 mmHg 92%
    07:00 +20°C° 2,1 mm 1 m/S 690 mmHg 92%
    08:00 +21°C° 2,9 mm 1 m/S 690 mmHg 91%
    09:00 +21°C° 2,9 mm 1 m/S 690 mmHg 90%
    10:00 +20°C° 2,9 mm 2 m/S 691 mmHg 89%
    11:00 +21°C° 4 mm 1 m/S 690 mmHg 90%
    12:00 +20°C° 4 mm 1 m/S 690 mmHg 92%
    13:00 +19°C° 4 mm 1 m/S 690 mmHg 93%
    14:00 +19°C° 1,3 mm 1 m/S 690 mmHg 93%
    15:00 +18°C° 1,3 mm 1 m/S 690 mmHg 93%
    16:00 +18°C° 1,3 mm 1 m/S 690 mmHg 93%
    17:00 +18°C° 0,1 mm 1 m/S 690 mmHg 92%
    18:00 +18°C° 0,1 mm 1 m/S 690 mmHg 92%
    19:00 +18°C° 0,1 mm 1 m/S 690 mmHg 91%
    20:00 +15°C° 0 mm 1 m/S 690 mmHg 92%
    21:00 +14°C° 0 mm 1 m/S 690 mmHg 93%
    22:00 +12°C° 0 mm 1 m/S 690 mmHg 94%
    23:00 +12°C° 0 mm 1 m/S 690 mmHg 94%

    26 Juni, Montag

    Zeit Temperatur Niederschläge Wind Luftdruck Luftfeuchtigkeit
    00:00 +12°C° 0 mm 1 m/S 690 mmHg 93%
    01:00 +11°C° 0 mm 1 m/S 689 mmHg 92%
    02:00 +11°C° 0 mm 1 m/S 689 mmHg 92%
    03:00 +11°C° 0 mm 1 m/S 689 mmHg 92%
    04:00 +11°C° 0 mm 1 m/S 689 mmHg 92%
    05:00 +13°C° 0 mm 1 m/S 690 mmHg 87%
    06:00 +15°C° 0 mm 1 m/S 691 mmHg 82%
    07:00 +19°C° 0 mm 1 m/S 691 mmHg 77%
    08:00 +21°C° 0 mm 1 m/S 692 mmHg 68%
    09:00 +22°C° 0 mm 1 m/S 692 mmHg 58%
    10:00 +24°C° 0 mm 2 m/S 692 mmHg 48%
    11:00 +25°C° 0 mm 2 m/S 692 mmHg 47%
    12:00 +26°C° 0 mm 2 m/S 692 mmHg 45%
    13:00 +27°C° 0 mm 2 m/S 692 mmHg 44%
    14:00 +26°C° 0 mm 2 m/S 692 mmHg 45%
    15:00 +26°C° 0 mm 2 m/S 691 mmHg 47%
    16:00 +26°C° 0 mm 2 m/S 691 mmHg 49%
    17:00 +25°C° 0 mm 2 m/S 691 mmHg 59%
    18:00 +23°C° 0 mm 1 m/S 690 mmHg 69%
    19:00 +22°C° 0 mm 1 m/S 690 mmHg 79%
    20:00 +19°C° 0 mm 1 m/S 690 mmHg 84%
    21:00 +16°C° 0 mm 1 m/S 690 mmHg 89%
    22:00 +14°C° 0 mm 1 m/S 689 mmHg 94%
    23:00 +14°C° 0 mm 1 m/S 689 mmHg 94%

    27 Juni, Dienstag

    Zeit Temperatur Niederschläge Wind Luftdruck Luftfeuchtigkeit
    00:00 +14°C° 0 mm 1 m/S 689 mmHg 94%
    01:00 +13°C° 0 mm 1 m/S 689 mmHg 94%
    02:00 +13°C° 0 mm 1 m/S 688 mmHg 95%
    03:00 +12°C° 0 mm 0 m/S 688 mmHg 95%
    04:00 +12°C° 0 mm 0 m/S 688 mmHg 95%
    05:00 +14°C° 0 mm 0 m/S 688 mmHg 90%
    06:00 +16°C° 0 mm 0 m/S 689 mmHg 85%
    07:00 +19°C° 0 mm 0 m/S 689 mmHg 80%
    08:00 +23°C° 0 mm 1 m/S 690 mmHg 70%
    09:00 +24°C° 0 mm 1 m/S 690 mmHg 61%
    10:00 +26°C° 0 mm 2 m/S 690 mmHg 52%
    11:00 +27°C° 0,1 mm 2 m/S 690 mmHg 50%
    12:00 +28°C° 0,1 mm 3 m/S 690 mmHg 48%
    13:00 +29°C° 0,1 mm 3 m/S 690 mmHg 46%
    14:00 +29°C° 0,1 mm 3 m/S 690 mmHg 47%
    15:00 +28°C° 0,1 mm 3 m/S 690 mmHg 48%
    16:00 +28°C° 0,1 mm 3 m/S 689 mmHg 49%
    17:00 +27°C° 0,1 mm 3 m/S 689 mmHg 58%
    18:00 +25°C° 0,1 mm 2 m/S 689 mmHg 68%
    19:00 +23°C° 0,1 mm 1 m/S 688 mmHg 77%
    20:00 +22°C° 0,1 mm 1 m/S 688 mmHg 82%
    21:00 +20°C° 0,1 mm 1 m/S 688 mmHg 86%
    22:00 +18°C° 0,1 mm 1 m/S 688 mmHg 91%
    23:00 +18°C° 0 mm 1 m/S 688 mmHg 91%

    28 Juni, Mittwoch

    Zeit Temperatur Niederschläge Wind Luftdruck Luftfeuchtigkeit
    00:00 +16°C° 0 mm 1 m/S 688 mmHg 92%
    01:00 +16°C° 0 mm 1 m/S 688 mmHg 92%
    02:00 +15°C° 0 mm 1 m/S 687 mmHg 92%
    03:00 +15°C° 0 mm 1 m/S 687 mmHg 92%
    04:00 +13°C° 0 mm 0 m/S 687 mmHg 92%
    05:00 +16°C° 0 mm 1 m/S 687 mmHg 86%
    06:00 +20°C° 0 mm 1 m/S 688 mmHg 79%
    07:00 +22°C° 0 mm 1 m/S 688 mmHg 73%
    08:00 +24°C° 0 mm 1 m/S 688 mmHg 65%
    09:00 +25°C° 0 mm 2 m/S 688 mmHg 58%
    10:00 +27°C° 0 mm 3 m/S 688 mmHg 51%
    11:00 +28°C° 0 mm 3 m/S 688 mmHg 49%
    12:00 +28°C° 0 mm 4 m/S 687 mmHg 47%
    13:00 +29°C° 0 mm 4 m/S 687 mmHg 44%
    14:00 +29°C° 0 mm 5 m/S 687 mmHg 45%
    15:00 +28°C° 0 mm 5 m/S 686 mmHg 46%
    16:00 +28°C° 0 mm 5 m/S 686 mmHg 47%
    17:00 +26°C° 0 mm 4 m/S 685 mmHg 56%
    18:00 +25°C° 0 mm 2 m/S 684 mmHg 65%
    19:00 +23°C° 0 mm 1 m/S 683 mmHg 74%
    20:00 +21°C° 0,8 mm 2 m/S 684 mmHg 78%
    21:00 +19°C° 0,8 mm 2 m/S 684 mmHg 82%
    22:00 +18°C° 0,8 mm 2 m/S 684 mmHg 86%
    23:00 +17°C° 1,1 mm 2 m/S 683 mmHg 89%
    Mehr zeigen